Retour au catalogue

COSMOS 1972

GLONASS

ActifNavigationMEO
NORAD 19503·PAYLOAD·🇷🇺 Russia

Lancé Sep 16, 1988 depuis Baikonur Cosmodrome

Loading…

Prochains Passages (prochaines 24 heures)

TLE

FraisSource: Space-Track

Époque: Sep 11, 2026, 06:07 UTC

1 19503U 88085C   26254.25519778 -.00000039  00000-0  00000-0 0  9993
2 19503  65.2192 311.9274 0005717 202.1957 161.7219  2.13102294295476

Suivez COSMOS 1972 en temps réel avec AllMySat

Download on the App Store